sat.trackr.live / text

‹ back to catalog

STARLINK-5807

NORAD 55791 · 2023-028BC

PAYLOAD ACTIVE UNKNOWN

§ Identity

Operator
Country
US
Launch date
2023-03-03
Launch site
AFWTR
Launch vehicle
Mass (kg)
RCS (m²)

Purposes: comms

External: N2YO · Heavens-Above · Gunter

§ Orbital elements

Epoch: 2026-05-25T01:19:14.750976Z

Period
96.11 min
Inclination
69.9996°
Eccentricity
0.0002666
Mean motion
14.98331203 rev/d
Perigee alt
570.2 km
Apogee alt
573.9 km
Semi-major
6,950.2 km
B*
6.1098e-5
RAAN
11.9677°
Arg perigee
267.9151°
Mean anomaly
92.1703°
Rev number
17,846

§ Raw data

STARLINK-58071 55791U 23028BC  26145.05503184  .00000636  00000+0  61098-4 0  99982 55791  69.9996  11.9677 0002666 267.9151  92.1703 14.98331203178461

JSON: /api/v1/satellites/55791 · /tle

For live sub-satellite position, see the globe view (requires WebGL).

§ Visibility from observer

Set your observer location to see the next 7 days of passes ≥ 10°. The values pass through the URL so the page stays shareable.

No JS? Fill the form by hand. The geolocation button needs JavaScript.